Location: Choisy
(48.7685°N, 2.4187°E)
Time: 00:23:35
(UTC+00:00)

Envisat - Pass Details

Date: 06 March 2024
Orbit: 762 x 764 km, 98.3° (Epoch: 12 April)

Event Time Altitude Azimuth Distance (km) Brightness Sun altitude
Rises 03:51:45 0° 10° (N) 3,242 6.7 -25.1°
Reaches altitude 10° 03:54:06 10° 7° (N) 2,311 5.8 -24.7°
Enters shadow 03:58:55 57° 298° (WNW) 903 3.1 -24.0°
